Location: ????????
(55.6189°N, 38.3031°E)
Time: 02:51:51
(UTC+00:00)

Cosmos 1356 Rocket - Pass Details

Date: 15 November 2019
Orbit: 543 x 598 km, 81.2° (Epoch: 15 December)

Event Time Altitude Azimuth Distance (km) Brightness Sun altitude
Exits shadow 02:35:40 38° 223° (SW) 930 4.1 -20.1°
Drops below altitude 10° 02:38:42 10° 191° (S) 1,935 6.0 -19.6°
Sets 02:40:57 0° 185° (S) 2,828 7.0 -19.3°
